Total_Precipitation_Accumulation
0.00 0.00 0.00 0.01 0.03 0.07 0.13 0.15 0.22 0.31 0.46 0.49 0.52 0.59 0.58 0.63 0.91 1.44 0.81 0.51 0.36 0.23 0.13 0.09 0.10 0.10 0.11 0.14 0.18 0.23 0.21 0.20 0.19 0.19 0.18 0.18 0.17 0.17 0.19 0.19 0.21 0.28 0.31 0.30 0.29 0.30 0.29 0.25 0.20
0.00 0.01 0.01 0.02 0.06 0.11 0.18 0.26 0.35 0.35 0.42 0.48 0.53 0.52 0.45 0.44 0.41 0.45 0.50 0.47 0.33 0.22 0.16 0.10 0.10 0.11 0.11 0.12 0.15 0.20 0.22 0.24 0.25 0.26 0.22 0.19 0.19 0.19 0.19 0.20 0.22 0.26 0.27 0.26 0.24 0.22 0.20 0.17 0.15
0.01 0.01 0.03 0.04 0.06 0.10 0.22 0.31 0.41 0.40 0.47 0.50 0.61 0.63 0.60 0.56 0.49 0.50 0.51 0.42 0.31 0.24 0.23 0.17 0.14 0.14 0.13 0.13 0.16 0.22 0.26 0.28 0.30 0.31 0.27 0.22 0.18 0.19 0.21 0.26 0.30 0.31 0.32 0.32 0.31 0.26 0.19 0.17 0.17
0.01 0.01 0.03 0.05 0.07 0.11 0.18 0.28 0.39 0.50 0.61 0.54 0.59 0.64 0.60 0.61 0.57 0.55 0.54 0.45 0.29 0.24 0.22 0.19 0.21 0.19 0.17 0.17 0.19 0.26 0.32 0.33 0.32 0.33 0.32 0.29 0.24 0.23 0.28 0.35 0.38 0.38 0.37 0.41 0.45 0.37 0.29 0.22 0.20
0.01 0.02 0.04 0.06 0.09 0.14 0.23 0.30 0.39 0.58 0.63 0.54 0.58 0.76 0.89 0.91 0.76 0.66 0.58 0.52 0.40 0.31 0.28 0.28 0.31 0.29 0.26 0.24 0.28 0.34 0.38 0.41 0.41 0.39 0.38 0.37 0.31 0.28 0.34 0.42 0.45 0.45 0.43 0.43 0.40 0.33 0.28 0.24 0.23
0.01 0.02 0.05 0.08 0.16 0.19 0.26 0.34 0.40 0.53 0.63 0.59 0.65 0.90 1.24 1.33 1.13 0.94 0.71 0.72 0.61 0.46 0.38 0.39 0.40 0.42 0.44 0.42 0.44 0.44 0.41 0.42 0.44 0.46 0.46 0.43 0.36 0.33 0.36 0.45 0.53 0.59 0.54 0.46 0.39 0.32 0.27 0.26 0.25
0.01 0.02 0.05 0.08 0.17 0.24 0.25 0.29 0.44 0.58 0.73 0.82 0.79 0.98 1.25 1.38 1.23 1.02 0.95 0.94 0.85 0.78 0.69 0.56 0.52 0.51 0.53 0.53 0.52 0.53 0.52 0.50 0.48 0.48 0.47 0.47 0.44 0.40 0.46 0.54 0.58 0.58 0.52 0.48 0.44 0.38 0.32 0.28 0.27
0.01 0.03 0.07 0.10 0.20 0.25 0.27 0.36 0.53 0.64 0.80 0.85 0.76 1.00 1.41 1.45 1.21 1.13 1.21 1.17 1.16 1.34 1.59 1.11 0.75 0.66 0.60 0.59 0.61 0.64 0.67 0.66 0.60 0.56 0.51 0.50 0.51 0.54 0.60 0.61 0.62 0.60 0.55 0.51 0.50 0.45 0.40 0.34 0.31
0.02 0.03 0.06 0.13 0.20 0.26 0.30 0.38 0.46 0.48 0.68 0.69 0.61 0.76 1.26 1.30 1.14 1.20 1.40 1.58 1.46 1.64 1.91 1.36 1.05 0.96 0.90 0.88 0.77 0.81 0.83 0.82 0.78 0.72 0.66 0.66 0.76 0.94 0.96 0.76 0.79 0.69 0.63 0.59 0.58 0.54 0.50 0.47 0.42
0.02 0.04 0.08 0.10 0.15 0.24 0.34 0.34 0.44 0.57 0.70 0.72 0.62 0.64 0.92 1.26 1.36 1.37 1.51 1.99 2.00 1.78 1.61 1.57 1.53 1.32 1.18 1.14 1.22 1.20 1.08 1.06 0.97 1.05 0.92 1.00 1.36 1.45 1.24 1.19 1.08 0.92 0.81 0.74 0.73 0.75 0.70 0.63 0.60
0.02 0.05 0.09 0.14 0.19 0.31 0.39 0.46 0.58 0.81 0.87 0.87 0.89 0.94 1.23 1.45 1.60 1.71 1.79 2.09 2.42 2.48 1.99 1.79 1.71 1.61 1.50 1.60 1.74 1.76 1.69 1.61 1.41 1.46 1.33 1.42 1.55 1.49 1.49 1.54 1.38 1.30 1.18 1.18 1.20 1.04 0.89 0.84 0.90
0.05 0.07 0.09 0.21 0.27 0.30 0.43 0.49 0.54 0.73 0.96 1.01 1.08 1.29 1.64 1.71 1.81 2.08 2.16 2.39 2.56 2.74 2.55 2.06 1.96 2.01 2.16 2.25 2.14 2.04 2.04 1.99 1.84 1.85 1.68 1.78 1.90 1.94 1.85 1.94 1.84 1.85 1.75 1.76 1.63 1.49 1.33 1.22 1.09
0.08 0.14 0.13 0.19 0.25 0.31 0.37 0.52 0.55 0.64 0.68 0.87 1.01 1.30 1.62 1.44 1.73 2.13 2.20 2.54 2.75 2.66 2.47 2.24 2.30 2.37 2.43 2.42 2.45 2.32 2.26 2.39 2.37 2.37 2.25 2.24 2.19 2.13 2.13 2.12 2.15 2.06 2.15 2.18 2.11 1.85 1.67 1.53 1.35
0.09 0.09 0.11 0.15 0.19 0.25 0.30 0.41 0.47 0.58 0.62 0.73 0.87 1.05 1.30 1.47 1.70 2.01 2.27 2.66 2.64 2.52 2.57 2.52 2.66 2.52 2.44 2.55 2.73 2.68 2.51 2.70 2.89 3.04 2.94 2.68 2.56 2.50 2.50 2.60 2.58 2.34 2.33 2.41 2.47 2.32 2.09 1.81 1.60
0.11 0.10 0.12 0.14 0.15 0.17 0.22 0.39 0.45 0.47 0.55 0.60 0.75 0.86 1.04 1.40 1.67 2.11 2.41 2.74 2.73 2.66 2.64 2.74 2.63 2.76 2.87 2.98 2.95 2.87 2.84 2.92 3.07 3.22 3.28 2.99 2.74 2.80 2.79 2.95 2.93 2.62 2.53 2.64 2.74 2.71 2.56 2.17 1.88
0.11 0.12 0.15 0.15 0.15 0.17 0.24 0.50 0.61 0.57 0.55 0.59 0.69 0.74 0.94 1.34 1.64 2.03 2.29 2.54 2.57 2.71 3.01 3.01 2.67 2.94 3.09 3.12 3.11 2.96 3.01 3.21 3.35 3.34 3.42 3.25 2.94 2.86 2.95 2.89 2.74 2.66 2.71 2.94 3.14 3.08 2.99 2.72 2.45
0.13 0.14 0.18 0.19 0.19 0.20 0.27 0.51 0.68 0.62 0.57 0.65 0.67 0.76 0.93 1.20 1.58 1.90 2.23 2.61 2.74 3.00 3.42 3.20 2.83 2.99 3.13 3.26 3.36 3.14 3.18 3.48 3.64 3.69 3.55 3.23 2.97 2.98 3.13 3.15 3.10 3.04 3.05 3.12 3.04 3.19 3.03 3.06 2.87
0.14 0.16 0.26 0.26 0.26 0.27 0.32 0.43 0.61 0.74 0.72 0.77 0.78 0.87 1.08 1.15 1.29 1.52 1.99 2.49 2.83 3.29 3.83 3.45 3.01 3.06 3.33 3.34 3.26 3.26 3.39 3.69 3.94 3.86 3.64 3.39 3.31 3.28 3.39 3.36 3.42 3.48 3.53 3.36 3.27 3.26 3.07 2.91 2.82
0.11 0.14 0.25 0.35 0.31 0.33 0.42 0.52 0.66 0.85 0.86 0.79 0.91 1.10 1.07 1.05 1.17 1.35 1.83 2.41 2.82 3.28 3.60 3.56 3.38 3.44 3.52 3.54 3.35 3.52 3.73 4.03 4.30 4.20 4.07 3.99 3.90 3.86 3.87 3.90 3.89 3.77 3.68 3.52 3.33 3.19 3.07 2.85 2.65
0.08 0.12 0.21 0.34 0.29 0.32 0.44 0.64 0.85 0.92 1.02 1.06 1.05 1.24 1.13 1.11 1.24 1.52 1.97 2.30 2.71 3.05 3.22 3.49 3.60 3.64 3.43 3.71 3.95 4.17 4.46 4.58 4.88 5.15 5.19 5.04 4.78 4.55 4.34 4.29 4.10 3.80 3.61 3.47 3.28 3.13 2.97 2.71 2.55
0.06 0.10 0.17 0.25 0.25 0.29 0.42 0.83 0.99 1.11 1.11 1.24 1.35 1.50 1.43 1.39 1.51 1.80 2.10 2.26 2.51 2.92 3.18 3.47 3.75 3.85 3.74 4.14 4.63 5.04 5.31 5.29 5.36 5.43 5.46 5.42 5.01 4.62 4.32 4.03 3.87 3.69 3.52 3.35 3.27 3.15 3.02 2.77 2.58
0.06 0.07 0.10 0.14 0.19 0.34 0.38 0.77 1.06 1.25 1.33 1.30 1.50 1.59 1.56 1.38 1.40 1.69 1.97 2.33 2.41 2.72 3.00 3.25 3.60 3.98 4.27 4.68 5.13 5.66 5.91 6.01 5.90 5.61 5.36 5.04 4.64 4.27 3.85 3.61 3.61 3.45 3.24 3.05 2.84 2.71 2.67 2.60 2.50
0.05 0.04 0.08 0.11 0.16 0.29 0.36 0.63 1.06 1.28 1.34 1.36 1.47 1.48 1.51 1.43 1.38 1.53 1.67 2.00 2.26 2.54 2.80 3.09 3.41 3.82 4.45 5.21 5.73 6.11 6.38 6.29 5.85 5.36 4.76 4.32 3.99 3.69 3.42 3.22 3.23 3.13 2.88 2.66 2.41 2.22 2.14 2.14 2.21
0.03 0.05 0.10 0.12 0.18 0.39 0.37 0.61 1.19 1.37 1.43 1.53 1.46 1.45 1.53 1.52 1.51 1.61 1.73 2.00 2.18 2.30 2.55 2.89 3.30 3.60 4.11 4.83 5.46 5.75 5.93 5.84 5.42 4.77 4.22 3.84 3.45 3.11 2.81 2.54 2.43 2.31 2.16 2.05 1.95 1.84 1.78 1.78 1.89
0.03 0.09 0.26 0.37 0.41 0.42 0.35 0.63 1.26 1.41 1.45 1.52 1.58 1.64 1.70 1.69 1.65 1.64 1.66 1.81 2.01 2.11 2.30 2.58 2.88 3.26 3.58 3.98 4.57 4.68 4.71 4.53 4.11 3.82 3.58 3.20 2.80 2.47 2.19 1.99 1.87 1.81 1.76 1.71 1.69 1.65 1.59 1.50 1.54
0.04 0.09 0.32 0.47 0.50 0.53 0.59 1.04 1.58 1.51 1.49 1.49 1.50 1.48 1.51 1.57 1.46 1.48 1.47 1.70 1.93 2.12 2.26 2.38 2.57 2.92 3.22 3.32 3.45 3.40 3.32 3.25 3.06 2.82 2.54 2.29 2.08 1.94 1.83 1.68 1.57 1.52 1.55 1.55 1.57 1.51 1.40 1.31 1.28
0.04 0.06 0.14 0.22 0.33 0.54 0.88 1.37 1.82 1.91 1.73 1.56 1.52 1.42 1.37 1.38 1.32 1.37 1.40 1.52 1.71 1.96 2.07 2.14 2.19 2.33 2.35 2.37 2.40 2.40 2.37 2.24 2.17 2.09 1.88 1.72 1.60 1.49 1.47 1.44 1.40 1.32 1.26 1.22 1.18 1.15 1.15 1.17 1.17
0.04 0.06 0.11 0.24 0.44 0.70 1.04 1.57 1.99 2.19 2.03 1.64 1.45 1.34 1.30 1.34 1.34 1.34 1.39 1.46 1.44 1.50 1.59 1.69 1.80 1.92 1.89 1.81 1.72 1.75 1.74 1.64 1.53 1.44 1.36 1.27 1.20 1.15 1.16 1.13 1.10 1.11 1.12 1.04 0.96 0.92 0.95 0.98 1.03
0.08 0.09 0.13 0.25 0.34 0.61 1.13 1.76 1.89 2.22 2.20 1.89 1.59 1.39 1.37 1.42 1.40 1.32 1.32 1.32 1.24 1.18 1.18 1.29 1.42 1.57 1.59 1.49 1.45 1.47 1.44 1.37 1.26 1.18 1.12 1.07 1.02 0.98 0.94 0.94 0.92 0.90 0.89 0.88 0.90 0.87 0.88 0.94 0.95
0.12 0.14 0.20 0.40 0.45 0.48 1.02 1.95 1.94 2.00 2.13 2.07 1.88 1.67 1.51 1.44 1.37 1.27 1.23 1.28 1.21 1.13 1.06 1.13 1.20 1.17 1.23 1.24 1.29 1.34 1.28 1.24 1.18 1.12 1.07 1.03 0.93 0.87 0.85 0.86 0.82 0.75 0.72 0.77 0.83 0.86 0.85 0.94 0.94